Tracking 20092 objects as of 13-Dec-2019
HD Live streaming from Space Station
objects crossing your sky now

SCOUT G-1 DEB

Track SCOUT G-1 DEB now!
10-day predictions


NORAD ID: 43332
Int'l Code: 1988-033N
Perigee: 1,007.1 km
Apogee: 1,285.4 km
Inclination: 90.4 °
Period: 108.1 minutes
Semi major axis: 7517 km
RCS: Unknown
Launch date: April 26, 1988
Source: United States (US)
Launch site: AIR FORCE WESTERN TEST RANGE (AFWTR)

Note: This is SATELLITE DEBRIS
aabbcc
Your satellite tracking list
Your tracking list is empty




NASA's NSSDC Master Catalog

Two Line Element Set (TLE):
1 43332U 88033N   19345.12925660  .00000228  00000-0  41495-3 0  9998
2 43332  90.3590 302.7170 0185095  33.7585 327.5181 13.32036093759561
Source of the keplerian elements: AFSPC